This is the latest recevied weather packets stored in our database for station/object WV5G-13. If no packets are shown the sender has not sent any weather packets the latest 1 day(s).
| Time | Temp. | Humidity | Pressure | Rain* | Wind** | Luminosity | Snow |
|---|---|---|---|---|---|---|---|
| 1778092419 | 13.33° C | 52% | 1014 hPa | 0 mm | - | 1064 W/m² | - |
| 1778090602 | 11.11° C | 58% | 1014.7 hPa | 0 mm | - | 566 W/m² | - |
| 1778089995 | 12.22° C | 55% | 1014.6 hPa | 0 mm | - | 472 W/m² | - |
| 1778088177 | 12.22° C | 57% | 1014.5 hPa | 0 mm | - | 1078 W/m² | - |
| 1778087875 | 11.11° C | 59% | 1014.6 hPa | 0 mm | - | 702 W/m² | - |
| 1778085755 | 10.56° C | 60% | 1014.7 hPa | 0 mm | - | 485 W/m² | - |
| 1778084843 | 10° C | 62% | 1014.3 hPa | 0 mm | - | 487 W/m² | - |
| 1778084540 | 9.44° C | 63% | 1014.6 hPa | 0 mm | - | 392 W/m² | - |
| 1778083627 | 10° C | 63% | 1014.1 hPa | 0 mm | - | 605 W/m² | - |
| 1778083022 | 10° C | 64% | 1014 hPa | 0 mm | - | 530 W/m² | - |
| 1778080066 | 8.33° C | 67% | 1013.9 hPa | 0 mm | - | 290 W/m² | - |
| 1778077342 | 7.78° C | 69% | 1013.5 hPa | 0 mm | - | 257 W/m² | - |
| 1778077040 | 7.22° C | 70% | 1013 hPa | 0 mm | - | 267 W/m² | - |
| 1778076738 | 7.78° C | 68% | 1013 hPa | 0 mm | - | 260 W/m² | - |
| 1778075222 | 6.67° C | 70% | 1013 hPa | 0 mm | - | 172 W/m² | - |
| 1778074918 | 6.67° C | 71% | 1013 hPa | 0 mm | - | 159 W/m² | - |
| 1778073706 | 6.11° C | 72% | 1013.5 hPa | 0 mm | - | 121 W/m² | - |
| 1778073404 | 6.11° C | 71% | 1013.6 hPa | 0 mm | - | 112 W/m² | - |
| 1778070681 | 5.56° C | 73% | 1013.7 hPa | 0 mm | - | 16 W/m² | - |
| 1778069469 | 5.56° C | 74% | 1013.2 hPa | 0 mm | - | 8 W/m² | - |
| 1778069167 | 5.56° C | 74% | 1013.2 hPa | 0 mm | - | 8 W/m² | - |
| 1778068864 | 5.56° C | 74% | 1013 hPa | 0 mm | - | 6 W/m² | - |
| 1778067957 | 5.56° C | 74% | 1012.8 hPa | 0 mm | - | 1 W/m² | - |
| 1778067353 | 5.56° C | 74% | 1012.7 hPa | 0 mm | - | 0 W/m² | - |
| 1778067050 | 5.56° C | 74% | 1012.8 hPa | 0 mm | - | 0 W/m² | - |
* Rain latest hour (hover to see other rain measurements)
** Current wind speed in m/s (hover to see current wind gust speed)